976  
ASUS43 KFSD 251210  
RWRFSD  
 
WEATHER ROUNDUP FOR SE SOUTH DAKOTA/SW MINNESOTA/NW IOWA  
NATIONAL WEATHER SERVICE SIOUX FALLS SD  
700 AM CDT TUE JUL 25 2017  
 
NOTE: "FAIR" INDICATES FEW OR NO CLOUDS BELOW 12,000 FEET WITH NO  
SIGNIFICANT WEATHER AND OR S TO VISIBILITY
.  
 
 
SDZ038>040-050-052>070-251300-  
SOUTHEAST SOUTH DAKOTA  
 
CITY SKY/WX TMP DP RH WIND PRES REMARKS
 
BROOKINGS CLEAR 68 65 90 S15 29.90S  
CHAMBERLAIN CLEAR 74 66 76 S5 29.83R  
6HR MIN TEMP: 74; 6HR MAX TEMP: 83;  
 
HURON CLEAR 71 68 90 MISG 29.82R  
6HR MIN TEMP: 70; 6HR MAX TEMP: 73;  
 
MADISON FAIR 68 68 100 S16 29.90S  
MITCHELL CLEAR 73 69 87 SE10 29.84S  
6HR MIN TEMP: 73; 6HR MAX TEMP: 76;  
 
SIOUX FALLS PTCLDY 71 67 87 S12 29.92R  
6HR MIN TEMP: 70; 6HR MAX TEMP: 73;  
 
WINNER FAIR 77 61 57 SW20 29.83R  
YANKTON CLEAR 78 69 73 S9 29.90R  

 
 
MNZ071-072-080-081-089-090-097-098-251300-  
SOUTHWEST MINNESOTA  
 
CITY SKY/WX TMP DP RH WIND PRES REMARKS
 
FAIRMONT PTCLDY 66 64 93 S17 30.01S  
JACKSON PTCLDY 64 63 94 S15G21 30.00S  
LUVERNE CLEAR 68 61 77 S10G16 29.95S  
MARSHALL PTCLDY 68 64 87 S15 29.91S  
6HR MIN TEMP: 68; 6HR MAX TEMP: 70; 6HR PCP: TRACE;  
 
MONTEVIDEO PTCLDY 66 66 100 S12G17 29.91S  
PIPESTONE CLEAR 70 64 83 S17G23 29.94R  
REDWOOD FALLS LGT RAIN 67 64 90 SE25G36 29.92F FOG  
TRACY MOCLDY 68 65 90 S16 29.93F  
WINDOM CLOUDY 66 63 88 SE16 29.98S  
WORTHINGTON CLOUDY 67 63 87 S17G24 29.97S  

 
 
IAZ001>003-012>014-020>022-031-032-NEZ013-014-SDZ071-251300-  
NORTHWEST IOWA  
 
CITY SKY/WX TMP DP RH WIND PRES REMARKS
 
CHEROKEE CLEAR 68 65 90 S9 30.00S  
DENISON CLEAR 70 64 83 VRB6 30.05R  
ESTHERVILLE CLOUDY 65 65 100 S15G24 30.01R  
ORANGE CITY CLEAR 70 64 83 S8 29.98S  
SHELDON PTCLDY 68 64 88 SE14G22 29.96S  
SIOUX CITY CLEAR 70 67 90 SE10 29.97R  
6HR MIN TEMP: 69; 6HR MAX TEMP: 74;  
 
SPENCER CLEAR 68 64 87 SE15 30.01R  
6HR MIN TEMP: 67; 6HR MAX TEMP: 70;  
 
STORM LAKE CLEAR 64 64 100 SE10 30.03R  

 
 
ABBREVIATIONS USED IN REMARKS  
TC - TEMPERATURE IN CELSIUS  
WCI - WIND CHILL INDEX  
HX - HEAT INDEX  
VSB - VISIBILITY  
 
 
 
CLICK HERE TO GO TO PREVIOUS BULLETINS.

The Nexlab SD Page
The Nexlab IA Page
The Nexlab MN Page
The Nexlab NE Page Main Text Page